EW7966 Weather Reports


Display with metric or nautical units.
time (UTC)temp
F
wind
direction
speed
MPH
gust
MPH
rain 1hr
in
rain 24hr
in
rain mn
in
humidity
%
barometer
mb
20260906021508 74 202 1.0 2.0 0.00 0.00 0.00 37 1000.9
20260906021505 74 202 2.0 2.0 0.00 0.00 0.00 37 1018.4
20260906021006 74 202 1.0 2.0 0.00 0.00 0.00 37 1018.4
20260906020505 75 202 0.0 0.0 0.00 0.00 0.00 38 1018.4
20260906020006 76 202 0.0 0.0 0.00 0.00 0.00 38 1018.3
20260906020004 76 202 0.0 0.0 0.00 0.00 0.00 38 1000.8
20260906015505 76 202 0.0 1.0 0.00 0.00 0.00 38 1018.3
20260906015009 77 202 0.0 1.0 0.00 0.00 0.00 34 1018.3
20260906014508 77 202 0.0 1.0 0.00 0.00 0.00 34 1000.8
20260906014505 77 202 0.0 1.0 0.00 0.00 0.00 34 1018.3
20260906014006 77 202 0.0 0.0 0.00 0.00 0.00 34 1018.3
20260906013105 78 202 0.0 1.0 0.00 0.00 0.00 33 1000.8
20260906012959 78 202 0.0 1.0 0.00 0.00 0.00 33 1018.3
20260906012505 78 202 0.0 4.0 0.00 0.00 0.00 34 1018.3
20260906012006 79 202 1.0 4.0 0.00 0.00 0.00 32 1018.3
20260906011505 79 161 2.0 6.0 0.00 0.00 0.00 31 1000.8
20260906011007 79 161 4.0 6.0 0.00 0.00 0.00 32 1018.2
20260906010505 79 161 2.0 3.0 0.00 0.00 0.00 34 1018.2
20260906010007 79 161 1.0 3.0 0.00 0.00 0.00 34 1018.4
20260906010004 79 161 1.0 3.0 0.00 0.00 0.00 34 1000.9
20260906005505 80 161 2.0 3.0 0.00 0.00 0.00 34 1018.5
20260906004505 80 161 2.0 5.0 0.00 0.00 0.00 31 1018.5
20260906004007 80 161 3.0 5.0 0.00 0.00 0.00 31 1018.5
20260906003505 80 161 4.0 6.0 0.00 0.00 0.00 31 1018.5
20260906003006 80 161 4.0 6.0 0.00 0.00 0.00 30 1018.5
20260906003003 80 161 3.0 6.0 0.00 0.00 0.00 30 1001.1
20260906002505 81 161 4.0 7.0 0.00 0.00 0.00 29 1018.4
20260906002008 81 161 4.0 7.0 0.00 0.00 0.00 29 1018.4
20260906001506 82 161 5.0 7.0 0.00 0.00 0.00 28 1018.3
20260906001503 82 161 4.0 7.0 0.00 0.00 0.00 28 1000.9
20260906001007 82 167 6.0 7.0 0.00 0.00 0.00 27 1018.4
20260906000008 83 164 5.0 8.0 0.00 0.00 0.00 27 1018.2
20260906000004 83 164 5.0 8.0 0.00 0.00 0.00 27 1000.7
20260905235507 83 169 4.0 7.0 0.00 0.00 0.00 27 1018.2
20260905235006 84 163 5.0 7.0 0.00 0.00 0.00 27 1018.2
20260905234506 84 168 3.0 6.0 0.00 0.00 0.00 27 1018.1
20260905234504 84 168 3.0 6.0 0.00 0.00 0.00 27 1000.6
20260905234006 84 194 4.0 8.0 0.00 0.00 0.00 26 1018.2
20260905233506 85 153 5.0 10.0 0.00 0.00 0.00 25 1018.0
20260905233006 84 157 5.0 8.0 0.00 0.00 0.00 25 1018.1
20260905233003 84 157 5.0 8.0 0.00 0.00 0.00 25 1000.6
20260905232505 84 165 5.0 8.0 0.00 0.00 0.00 27 1018.0
20260905232001 83 144 4.0 8.0 0.00 0.00 0.00 26 1018.1
20260905231505 83 163 6.0 10.0 0.00 0.00 0.00 27 1018.1
20260905231006 83 165 6.0 10.0 0.00 0.00 0.00 28 1018.1
20260905230110 83 163 4.0 10.0 0.00 0.00 0.00 27 1000.7
20260905225505 83 188 5.0 10.0 0.00 0.00 0.00 27 1018.2
20260905224505 84 167 7.0 11.0 0.00 0.00 0.00 27 1000.7
20260905224006 83 171 5.0 7.0 0.00 0.00 0.00 27 1018.2
20260905223505 83 153 5.0 8.0 0.00 0.00 0.00 26 1018.1
20260905223008 84 149 4.0 10.0 0.00 0.00 0.00 25 1018.1
20260905223004 84 149 4.0 10.0 0.00 0.00 0.00 25 1000.6
20260905222006 85 161 8.0 12.0 0.00 0.00 0.00 25 1018.2
20260905221506 85 151 8.0 11.0 0.00 0.00 0.00 26 1018.2
20260905221504 85 151 7.0 11.0 0.00 0.00 0.00 26 1000.7
20260905221005 84 125 9.0 11.0 0.00 0.00 0.00 26 1018.2
20260905220458 83 108 7.0 10.0 0.00 0.00 0.00 25 1018.2
20260905220004 83 147 5.0 8.0 0.00 0.00 0.00 26 1000.8
20260905215505 83 117 2.0 4.0 0.00 0.00 0.00 26 1018.2
20260905214508 83 150 2.0 5.0 0.00 0.00 0.00 24 1018.3
20260905214503 83 150 2.0 5.0 0.00 0.00 0.00 24 1000.8
20260905213007 83 129 6.0 10.0 0.00 0.00 0.00 25 1018.4
20260905213003 83 129 6.0 10.0 0.00 0.00 0.00 25 1000.9
20260905212505 84 113 5.0 8.0 0.00 0.00 0.00 26 1018.3
20260905212006 84 93 1.0 6.0 0.00 0.00 0.00 25 1018.4
20260905211603 84 86 4.0 6.0 0.00 0.00 0.00 25 1001.0
20260905211458 84 71 3.0 8.0 0.00 0.00 0.00 25 1018.5
20260905211005 84 68 2.0 10.0 0.00 0.00 0.00 24 1018.5
20260905210506 84 85 6.0 10.0 0.00 0.00 0.00 24 1018.6
20260905210006 84 106 6.0 10.0 0.00 0.00 0.00 24 1018.6
20260905210004 84 106 5.0 10.0 0.00 0.00 0.00 24 1001.1
20260905205006 85 346 5.0 13.0 0.00 0.00 0.00 24 1018.7
20260905204504 86 88 4.0 13.0 0.00 0.00 0.00 24 1001.3
20260905204006 86 45 4.0 12.0 0.00 0.00 0.00 24 1018.7
20260905203505 85 57 7.0 12.0 0.00 0.00 0.00 25 1018.9
20260905203004 85 101 4.0 14.0 0.00 0.00 0.00 24 1001.5
20260905202506 86 59 10.0 14.0 0.00 0.00 0.00 24 1019.0
20260905202006 86 36 3.0 14.0 0.00 0.00 0.00 26 1019.0
20260905201505 86 73 4.0 11.0 0.00 0.00 0.00 24 1019.1
20260905201503 86 73 4.0 11.0 0.00 0.00 0.00 24 1001.7
20260905201009 86 59 4.0 11.0 0.00 0.00 0.00 25 1019.1
20260905200505 85 355 4.0 9.0 0.00 0.00 0.00 25 1019.2
20260905200007 85 48 4.0 13.0 0.00 0.00 0.00 24 1001.8
20260905195505 86 67 9.0 13.0 0.00 0.00 0.00 24 1019.4
20260905195006 87 39 6.0 12.0 0.00 0.00 0.00 24 1019.4
20260905194507 86 355 4.0 12.0 0.00 0.00 0.00 25 1019.4
20260905194504 86 355 4.0 12.0 0.00 0.00 0.00 25 1002.0
20260905194005 86 322 4.0 11.0 0.00 0.00 0.00 23 1019.4
20260905193506 86 330 5.0 13.0 0.00 0.00 0.00 24 1019.5
20260905193006 86 333 6.0 13.0 0.00 0.00 0.00 25 1019.6
20260905193004 86 333 5.0 13.0 0.00 0.00 0.00 25 1002.2
20260905192506 86 331 6.0 14.0 0.00 0.00 0.00 24 1019.5
20260905192006 85 341 4.0 15.0 0.00 0.00 0.00 26 1019.6
20260905191503 84 348 7.0 15.0 0.00 0.00 0.00 25 1002.1
20260905191006 84 29 10.0 15.0 0.00 0.00 0.00 24 1019.7
20260905190008 85 350 7.0 14.0 0.00 0.00 0.00 25 1019.7
20260905190004 85 350 7.0 14.0 0.00 0.00 0.00 25 1002.3
20260905185506 84 355 5.0 15.0 0.00 0.00 0.00 26 1019.8
20260905184505 83 22 7.0 14.0 0.00 0.00 0.00 25 1002.5
20260905184007 83 37 9.0 15.0 0.00 0.00 0.00 24 1019.9
20260905183506 83 18 11.0 16.0 0.00 0.00 0.00 26 1019.9
20260905183007 84 26 8.0 16.0 0.00 0.00 0.00 25 1020.0
20260905183003 84 31 7.0 16.0 0.00 0.00 0.00 25 1002.6
20260905182505 84 5 3.0 13.0 0.00 0.00 0.00 26 1020.1
20260905182006 83 355 6.0 17.0 0.00 0.00 0.00 26 1020.2
20260905181505 82 5 7.0 17.0 0.00 0.00 0.00 26 1020.1
20260905181503 82 5 6.0 17.0 0.00 0.00 0.00 26 1002.7
20260905181006 82 49 11.0 19.0 0.00 0.00 0.00 25 1020.2
20260905180505 82 29 10.0 19.0 0.00 0.00 0.00 25 1020.2
20260905180004 83 17 10.0 18.0 0.00 0.00 0.00 26 1002.8
20260905175505 83 44 11.0 18.0 0.00 0.00 0.00 26 1020.3
20260905174503 81 5 9.0 16.0 0.00 0.00 0.00 27 1002.8
20260905174006 82 11 6.0 19.0 0.00 0.00 0.00 26 1020.3
20260905173505 82 21 9.0 19.0 0.00 0.00 0.00 27 1020.3
20260905173007 81 28 10.0 17.0 0.00 0.00 0.00 27 1020.4
20260905173005 81 28 10.0 17.0 0.00 0.00 0.00 27 1003.0
20260905172505 82 55 10.0 17.0 0.00 0.00 0.00 27 1020.4
20260905172007 82 336 7.0 17.0 0.00 0.00 0.00 27 1020.4
20260905171505 82 22 10.0 17.0 0.00 0.00 0.00 28 1020.5
20260905171006 82 360 5.0 15.0 0.00 0.00 0.00 29 1020.5
20260905170505 82 360 8.0 15.0 0.00 0.00 0.00 28 1020.5
20260905170007 82 10 4.0 12.0 0.00 0.00 0.00 30 1020.5
20260905170005 82 10 4.0 12.0 0.00 0.00 0.00 30 1003.0
20260905165506 81 336 6.0 15.0 0.00 0.00 0.00 30 1020.4
20260905164505 81 20 8.0 12.0 0.00 0.00 0.00 28 1020.5
20260905163505 81 25 4.0 13.0 0.00 0.00 0.00 31 1020.5
20260905163007 80 14 7.0 12.0 0.00 0.00 0.00 31 1020.4
20260905163004 80 14 7.0 12.0 0.00 0.00 0.00 31 1003.0
20260905162506 79 19 4.0 12.0 0.00 0.00 0.00 31 1020.4
20260905162007 79 27 7.0 13.0 0.00 0.00 0.00 31 1020.3
20260905161505 79 22 9.0 13.0 0.00 0.00 0.00 30 1020.3
20260905161503 79 22 8.0 13.0 0.00 0.00 0.00 30 1002.8
20260905161007 80 36 7.0 12.0 0.00 0.00 0.00 29 1020.2
20260905160007 79 327 5.0 11.0 0.00 0.00 0.00 31 1020.1
20260905160004 79 327 5.0 11.0 0.00 0.00 0.00 31 1002.6
20260905155506 79 5 5.0 11.0 0.00 0.00 0.00 33 1020.1
20260905155007 78 20 3.0 10.0 0.00 0.00 0.00 34 1020.1
20260905154506 77 314 4.0 10.0 0.00 0.00 0.00 35 1020.1
20260905154503 77 314 3.0 10.0 0.00 0.00 0.00 35 1002.6
20260905154007 77 309 6.0 10.0 0.00 0.00 0.00 35 1020.1
20260905153506 76 319 4.0 9.0 0.00 0.00 0.00 37 1020.1
20260905153008 76 318 3.0 9.0 0.00 0.00 0.00 38 1020.1
20260905153004 76 318 3.0 9.0 0.00 0.00 0.00 38 1002.6
20260905152505 75 254 6.0 10.0 0.00 0.00 0.00 38 1020.0
20260905152006 74 304 6.0 10.0 0.00 0.00 0.00 40 1020.0
20260905151505 74 313 5.0 8.0 0.00 0.00 0.00 40 1020.0
20260905151503 74 313 4.0 8.0 0.00 0.00 0.00 40 1002.5
20260905150504 74 298 7.0 12.0 0.00 0.00 0.00 40 1019.9
20260905150007 74 288 7.0 12.0 0.00 0.00 0.00 40 1019.9
20260905150004 74 288 7.0 12.0 0.00 0.00 0.00 40 1002.5
20260905145505 74 301 3.0 13.0 0.00 0.00 0.00 41 1019.9
20260905145006 73 292 6.0 13.0 0.00 0.00 0.00 41 1019.9
20260905144504 73 286 5.0 12.0 0.00 0.00 0.00 41 1002.6
20260905144006 72 297 5.0 9.0 0.00 0.00 0.00 43 1019.9
20260905143505 72 286 4.0 9.0 0.00 0.00 0.00 44 1019.9
20260905143007 71 294 4.0 8.0 0.00 0.00 0.00 46 1019.9
20260905142505 71 259 4.0 8.0 0.00 0.00 0.00 47 1019.9
20260905141506 69 265 3.0 6.0 0.00 0.00 0.00 49 1019.7
20260905141504 69 265 3.0 6.0 0.00 0.00 0.00 49 1002.5
20260905141007 68 274 3.0 6.0 0.00 0.00 0.00 51 1019.7
20260905140505 68 294 2.0 5.0 0.00 0.00 0.00 53 1019.7
20260905140009 67 226 3.0 7.0 0.00 0.00 0.00 54 1019.7
20260905140005 67 226 2.0 7.0 0.00 0.00 0.00 54 1002.4
20260905135506 66 223 2.0 7.0 0.00 0.00 0.00 58 1019.7
20260905135005 65 206 3.0 5.0 0.00 0.00 0.00 59 1019.6
20260905134557 65 236 2.0 5.0 0.00 0.00 0.00 61 1002.3
20260905134459 65 237 3.0 5.0 0.00 0.00 0.00 62 1019.6
20260905134006 64 241 2.0 5.0 0.00 0.00 0.00 63 1019.5
20260905133506 64 230 3.0 5.0 0.00 0.00 0.00 64 1019.5
20260905133006 63 218 3.0 4.0 0.00 0.00 0.00 65 1019.5
20260905133003 63 218 2.0 4.0 0.00 0.00 0.00 65 1002.2
20260905132505 63 218 1.0 2.0 0.00 0.00 0.00 66 1019.5
20260905132006 62 218 0.0 1.0 0.00 0.00 0.00 68 1019.4
20260905131609 61 218 0.0 2.0 0.00 0.00 0.00 68 1002.2
20260905131500 61 218 0.0 2.0 0.00 0.00 0.00 69 1019.4
20260905131006 61 218 0.0 3.0 0.00 0.00 0.00 69 1019.4
20260905130506 61 218 1.0 3.0 0.00 0.00 0.00 69 1019.2
20260905130007 60 218 2.0 3.0 0.00 0.00 0.00 70 1019.0
20260905130004 60 218 1.0 3.0 0.00 0.00 0.00 70 1001.7
20260905125505 60 218 2.0 4.0 0.00 0.00 0.00 71 1019.0
20260905125007 60 218 2.0 5.0 0.00 0.00 0.00 72 1018.9
20260905124505 59 237 2.0 5.0 0.00 0.00 0.00 73 1001.5
20260905124005 60 237 2.0 4.0 0.00 0.00 0.00 73 1018.8
20260905123011 60 237 2.0 7.0 0.00 0.00 0.00 73 1001.3
20260905123006 60 237 3.0 7.0 0.00 0.00 0.00 73 1018.7
20260905122505 60 196 2.0 8.0 0.00 0.00 0.00 74 1018.7
20260905122006 60 212 3.0 8.0 0.00 0.00 0.00 74 1018.6
20260905121505 60 206 4.0 7.0 0.00 0.00 0.00 75 1018.5
20260905121503 60 206 4.0 7.0 0.00 0.00 0.00 75 1001.1
20260905121006 59 215 2.0 6.0 0.00 0.00 0.00 75 1018.5
20260905120505 59 168 3.0 6.0 0.00 0.00 0.00 76 1018.4
20260905120007 59 199 3.0 7.0 0.00 0.00 0.00 77 1018.4
20260905120004 59 199 2.0 7.0 0.00 0.00 0.00 77 1000.9
20260905115505 59 200 4.0 7.0 0.00 0.00 0.00 78 1018.4
20260905115006 59 213 4.0 6.0 0.00 0.00 0.00 78 1018.4
20260905114505 59 221 3.0 5.0 0.00 0.00 0.00 78 1018.4
20260905114006 59 213 3.0 5.0 0.00 0.00 0.00 77 1018.5
20260905113505 60 252 2.0 5.0 0.00 0.00 0.00 76 1018.6
20260905113007 60 225 2.0 5.0 0.00 0.00 0.00 77 1018.6
20260905113003 60 225 2.0 5.0 0.00 0.00 0.00 77 1001.1
20260905112006 59 196 3.0 6.0 0.00 0.00 0.00 78 1018.6
20260905111505 59 217 3.0 6.0 0.00 0.00 0.00 79 1018.6
20260905111503 59 217 3.0 6.0 0.00 0.00 0.00 79 1001.2
20260905111006 59 212 3.0 5.0 0.00 0.00 0.00 79 1018.6
20260905110100 59 205 2.0 5.0 0.00 0.00 0.00 79 1001.3
20260905110001 59 205 3.0 5.0 0.00 0.00 0.00 79 1018.6
20260905105505 59 205 2.0 6.0 0.00 0.00 0.00 78 1018.6
20260905104503 60 230 1.0 6.0 0.00 0.00 0.00 78 1001.2
20260905104006 60 230 4.0 6.0 0.00 0.00 0.00 77 1018.5
20260905103006 60 203 3.0 6.0 0.00 0.00 0.00 78 1018.6
20260905103004 60 203 2.0 6.0 0.00 0.00 0.00 78 1001.2
20260905102505 60 189 3.0 6.0 0.00 0.00 0.00 78 1018.6
20260905102005 60 169 2.0 6.0 0.00 0.00 0.00 78 1018.7
20260905101506 60 198 3.0 7.0 0.00 0.00 0.00 79 1018.6
20260905101504 60 198 2.0 7.0 0.00 0.00 0.00 79 1001.3
20260905101006 60 195 3.0 8.0 0.00 0.00 0.00 79 1018.8
20260905100505 60 190 4.0 8.0 0.00 0.00 0.00 79 1018.7
20260905100007 60 188 5.0 8.0 0.00 0.00 0.00 78 1018.7
20260905100005 60 188 5.0 8.0 0.00 0.00 0.00 78 1001.4
20260905095505 60 212 2.0 8.0 0.00 0.00 0.00 78 1018.8
20260905095006 59 191 4.0 6.0 0.00 0.00 0.00 77 1018.8
20260905094504 59 181 4.0 7.0 0.00 0.00 0.00 77 1018.8
20260905094006 59 181 3.0 7.0 0.00 0.00 0.00 77 1018.8
20260905093505 58 169 4.0 5.0 0.00 0.00 0.00 77 1018.8
20260905093003 58 169 1.0 3.0 0.00 0.00 0.00 75 1001.5
20260905092007 59 169 1.0 4.0 0.00 0.00 0.00 73 1018.9
20260905091505 60 169 0.0 5.0 0.00 0.00 0.00 71 1019.0
20260905091503 60 169 0.0 5.0 0.00 0.00 0.00 71 1001.8
20260905091006 60 169 3.0 5.0 0.00 0.00 0.00 73 1018.9
20260905090506 60 169 2.0 4.0 0.00 0.00 0.00 72 1019.0
20260905090007 61 169 2.0 3.0 0.00 0.00 0.00 69 1019.1
20260905090004 61 169 1.0 3.0 0.00 0.00 0.00 69 1001.8
20260905085505 61 169 1.0 3.0 0.00 0.00 0.00 69 1019.1
20260905085006 62 169 2.0 4.0 0.00 0.00 0.00 68 1019.1
20260905084506 62 169 3.0 6.0 0.00 0.00 0.00 68 1019.0
20260905084503 62 169 2.0 6.0 0.00 0.00 0.00 68 1001.7
20260905083505 62 203 2.0 3.0 0.00 0.00 0.00 67 1019.1
20260905083006 63 203 1.0 4.0 0.00 0.00 0.00 66 1018.9
20260905082006 64 236 1.0 5.0 0.00 0.00 0.00 64 1019.0
20260905081505 64 190 2.0 5.0 0.00 0.00 0.00 62 1018.9
20260905081006 65 190 2.0 11.0 0.00 0.00 0.00 61 1018.8
20260905080505 66 175 6.0 18.0 0.00 0.00 0.00 60 1018.7
20260905080006 66 153 10.0 18.0 0.00 0.00 0.00 59 1018.6
20260905075505 66 156 11.0 19.0 0.00 0.00 0.00 59 1018.4
20260905075008 66 129 10.0 15.0 0.00 0.00 0.00 59 1018.5
20260905074628 67 124 10.0 15.0 0.00 0.00 0.00 58 1001.2
20260905074458 67 110 10.0 15.0 0.00 0.00 0.00 58 1018.4
20260905074006 66 183 6.0 11.0 0.00 0.00 0.00 59 1018.2
20260905073505 66 165 5.0 10.0 0.00 0.00 0.00 59 1018.2
20260905073006 67 187 3.0 10.0 0.00 0.00 0.00 57 1018.3
20260905073003 67 187 2.0 10.0 0.00 0.00 0.00 57 1000.9
20260905072505 68 213 4.0 10.0 0.00 0.00 0.00 56 1018.2
20260905072006 68 213 7.0 12.0 0.00 0.00 0.00 56 1018.2
20260905071504 68 209 6.0 14.0 0.00 0.00 0.00 55 1018.2
20260905071000 68 184 8.0 15.0 0.00 0.00 0.00 55 1018.1
20260905070505 68 173 8.0 15.0 0.00 0.00 0.00 55 1018.1
20260905070006 68 184 10.0 13.0 0.00 0.00 0.00 55 1018.2
20260905070003 68 184 9.0 13.0 0.00 0.00 0.00 55 1000.8
20260905065504 68 166 9.0 13.0 0.00 0.00 0.00 55 1018.2
20260905065006 68 185 9.0 17.0 0.00 0.00 0.00 55 1018.2
20260905064504 68 175 12.0 19.0 0.00 0.00 0.00 55 1018.2
20260905064005 68 157 12.0 20.0 0.00 0.00 0.00 55 1018.2
20260905063505 68 189 12.0 19.0 0.00 0.00 0.00 55 1018.2
20260905063007 68 164 12.0 20.0 0.00 0.00 0.00 56 1018.3
20260905063003 68 164 11.0 20.0 0.00 0.00 0.00 56 1000.9
20260905062505 68 148 10.0 16.0 0.00 0.00 0.00 56 1018.4
20260905062006 68 177 10.0 17.0 0.00 0.00 0.00 56 1018.4
20260905061505 68 161 10.0 18.0 0.00 0.00 0.00 56 1018.4
20260905061503 68 161 10.0 18.0 0.00 0.00 0.00 56 1001.1
20260905061005 68 153 9.0 13.0 0.00 0.00 0.00 56 1018.4
20260905060505 68 146 8.0 16.0 0.00 0.00 0.00 56 1018.4
20260905060009 68 150 8.0 16.0 0.00 0.00 0.00 55 1018.5
20260905060004 68 150 7.0 16.0 0.00 0.00 0.00 55 1001.1
20260905055504 69 165 10.0 17.0 0.00 0.00 0.00 54 1018.4
20260905055004 69 152 10.0 19.0 0.00 0.00 0.00 53 1018.4
20260905054510 69 156 11.0 21.0 0.00 0.00 0.00 53 1001.2
20260905054505 69 155 12.0 21.0 0.00 0.00 0.00 53 1018.6
20260905054005 69 158 11.0 16.0 0.00 0.00 0.00 53 1018.4
20260905053503 69 185 10.0 17.0 0.00 0.00 0.00 53 1018.4
20260905053007 69 163 11.0 18.0 0.00 0.00 0.00 53 1018.4
20260905053002 69 163 10.0 18.0 0.00 0.00 0.00 53 1000.9
20260905052503 69 165 10.0 16.0 0.00 0.00 0.00 53 1018.4
20260905052004 69 148 9.0 16.0 0.00 0.00 0.00 53 1018.4
20260905051502 69 188 10.0 15.0 0.00 0.00 0.00 53 1000.9
20260905051005 69 187 10.0 16.0 0.00 0.00 0.00 52 1018.4
20260905050503 70 169 10.0 18.0 0.00 0.00 0.00 51 1018.4
20260905050006 70 186 10.0 18.0 0.00 0.00 0.00 51 1018.4
20260905050002 70 186 9.0 18.0 0.00 0.00 0.00 51 1000.8
20260905045503 70 152 11.0 14.0 0.00 0.00 0.00 51 1018.4
20260905045005 70 157 10.0 13.0 0.00 0.00 0.00 50 1018.4
20260905044504 70 151 10.0 13.0 0.00 0.00 0.00 50 1018.4
20260905044006 70 150 10.0 12.0 0.00 0.00 0.00 50 1018.4
20260905043503 70 150 10.0 15.0 0.00 0.00 0.00 50 1018.5
20260905043002 70 144 9.0 15.0 0.00 0.00 0.00 50 1000.9
20260905042503 70 149 9.0 14.0 0.00 0.00 0.00 50 1018.6
20260905042004 70 146 9.0 14.0 0.00 0.00 0.00 50 1018.5
20260905041504 70 161 8.0 14.0 0.00 0.00 0.00 50 1018.5
20260905041004 70 171 9.0 12.0 0.00 0.00 0.00 49 1018.4
20260905040503 70 140 9.0 12.0 0.00 0.00 0.00 49 1018.5
20260905040007 70 147 9.0 14.0 0.00 0.00 0.00 49 1018.5
20260905040002 70 147 8.0 14.0 0.00 0.00 0.00 49 1000.9
20260905035504 71 162 10.0 12.0 0.00 0.00 0.00 48 1018.5
20260905035004 71 175 10.0 16.0 0.00 0.00 0.00 48 1018.6
20260905034503 72 172 10.0 16.0 0.00 0.00 0.00 47 1018.5
20260905033504 72 154 10.0 19.0 0.00 0.00 0.00 47 1018.5
20260905033004 72 156 10.0 15.0 0.00 0.00 0.00 47 1018.5
20260905033002 72 156 9.0 15.0 0.00 0.00 0.00 47 1000.9
20260905032506 72 162 10.0 16.0 0.00 0.00 0.00 47 1018.4
20260905032004 72 153 8.0 12.0 0.00 0.00 0.00 47 1018.4
20260905031508 72 151 7.0 11.0 0.00 0.00 0.00 47 1000.8
20260905031506 72 151 8.0 11.0 0.00 0.00 0.00 47 1018.4
20260905031006 72 160 4.0 9.0 0.00 0.00 0.00 48 1018.4
20260905030505 72 148 4.0 14.0 0.00 0.00 0.00 47 1018.4
20260905030008 73 154 8.0 19.0 0.00 0.00 0.00 45 1018.4
20260905030004 73 154 7.0 19.0 0.00 0.00 0.00 45 1000.8
20260905025006 74 167 12.0 17.0 0.00 0.00 0.00 41 1018.3
20260905024506 74 136 4.0 14.0 0.00 0.00 0.00 39 1018.4
20260905024504 74 136 3.0 14.0 0.00 0.00 0.00 39 1000.9
20260905024006 75 155 9.0 16.0 0.00 0.00 0.00 37 1018.4
20260905023505 75 148 8.0 11.0 0.00 0.00 0.00 38 1018.2
20260905023006 75 148 8.0 14.0 0.00 0.00 0.00 38 1018.2
20260905023004 75 148 7.0 14.0 0.00 0.00 0.00 38 1000.7
20260905022506 76 151 7.0 17.0 0.00 0.00 0.00 37 1018.2